Location: Pontbriand
(46.1542°N, 71.2542°W)
Time: 17:19:49
(UTC+00:00)

Envisat - Pass Details

Date: 07 December 2021
Orbit: 764 x 766 km, 98.2° (Epoch: 16 January)

Event Time Altitude Azimuth Distance (km) Brightness Sun altitude
Rises 10:19:50 0° 9° (N) 3,244 6.2 -18.9°
Reaches altitude 10° 10:22:12 10° 5° (N) 2,313 5.4 -18.5°
Maximum altitude 10:27:08 53° 289° (WNW) 934 3.0 -17.7°
Drops below altitude 10° 10:32:03 10° 214° (SSW) 2,296 5.3 -16.9°
Sets 10:34:23 0° 209° (SSW) 3,218 6.1 -16.5°
